Vorticity
9 10 11 11 13 13 13 12 10 10 9 8 8 7 6 5 5 6 10 21 31 25 13 14 21 23 22 23 25 27 27 22 15 13 16 31 49 53 43 27 17 17 16 12 12 14 14 16 13 9 11 13 10 8 5 4 7 6 -6 -21 -32 -40 -39
10 10 11 11 13 13 13 14 12 11 10 8 7 8 8 6 5 7 7 9 21 29 21 13 17 21 20 21 24 25 28 29 25 19 13 14 26 42 52 48 31 18 16 15 13 13 13 16 19 14 8 10 11 11 10 6 2 6 7 1 -8 -16 -24
12 11 10 11 13 14 14 13 13 13 11 9 8 6 7 8 6 6 7 7 11 22 26 19 14 18 18 18 22 25 27 29 31 28 22 14 13 21 36 50 51 36 20 14 13 14 13 10 16 22 16 10 9 10 11 12 8 4 4 5 7 10 13
12 11 11 12 12 14 15 14 14 14 13 10 10 8 5 6 8 6 6 8 8 12 22 24 18 16 16 15 17 23 28 30 32 34 33 25 16 13 17 30 46 50 39 23 11 10 15 13 9 16 24 21 13 8 7 9 11 10 9 7 3 4 7
13 12 11 12 12 13 14 15 15 16 15 12 10 9 6 4 6 7 6 7 8 8 14 23 23 18 15 15 14 16 23 29 30 33 37 37 28 18 12 14 26 41 47 41 25 10 9 14 11 8 15 24 24 18 10 7 7 8 9 10 9 7 5
13 13 11 11 11 12 13 15 17 17 16 14 13 11 8 4 4 6 6 6 7 8 9 16 24 23 18 15 14 13 15 22 27 28 31 39 40 31 20 13 13 24 36 44 41 26 11 9 11 8 6 13 22 25 20 14 10 8 7 7 8 8 9
13 12 12 11 10 11 13 15 17 18 16 14 16 15 10 5 4 4 5 5 5 7 8 9 16 24 23 18 15 14 13 14 20 24 26 30 37 39 33 22 14 14 22 33 41 41 31 18 12 10 5 5 11 18 23 22 18 15 13 10 7 6 7
14 13 12 12 11 11 12 14 15 17 16 15 17 18 14 7 4 4 4 4 3 4 7 7 8 15 22 23 18 15 13 13 14 18 22 25 30 35 36 33 26 19 16 20 28 37 41 36 27 22 15 9 7 10 16 21 21 19 19 18 15 10 7
14 13 12 12 12 11 11 12 14 13 15 19 21 20 17 11 6 4 3 3 3 3 4 6 6 7 13 21 23 20 15 13 13 14 16 19 24 29 32 32 31 27 22 19 19 22 29 34 34 33 30 23 16 12 10 13 17 17 16 18 21 20 15
13 13 13 12 12 12 10 11 11 11 14 20 24 22 19 14 9 6 4 3 3 3 3 3 5 5 7 11 19 24 22 16 13 13 14 15 17 21 26 28 29 28 25 22 20 19 20 24 26 29 32 31 27 23 17 13 14 14 12 11 14 16 17
13 13 14 14 12 11 10 10 10 9 13 19 23 24 22 17 12 8 6 4 2 3 4 4 3 4 5 7 10 17 24 24 18 13 12 14 15 15 17 21 24 27 26 24 23 20 19 20 22 23 27 29 29 29 28 25 21 17 14 12 12 12 12
12 13 13 14 14 11 10 10 9 9 12 17 21 24 24 22 17 11 7 6 4 1 2 4 3 2 3 4 6 9 14 22 24 21 15 12 12 14 14 14 15 18 22 23 24 24 22 21 20 20 22 25 26 27 29 31 32 29 24 20 17 15 13
13 13 13 14 14 12 10 8 8 10 13 15 17 20 24 25 21 16 10 6 5 3 1 2 3 3 2 2 4 5 6 11 18 23 24 20 15 12 11 11 12 11 13 15 17 19 21 21 20 19 19 20 21 22 24 27 30 34 33 31 30 26 19
13 12 13 15 14 13 11 7 7 10 12 14 15 17 23 27 25 22 16 8 5 5 3 1 1 2 3 2 1 3 4 5 7 12 19 23 24 20 15 11 10 10 10 11 12 12 13 15 17 16 16 17 17 17 18 20 23 27 30 32 34 36 32
14 12 12 14 14 13 11 7 8 11 11 13 14 15 21 26 26 27 23 12 6 5 4 3 1 -1 0 1 1 1 2 3 4 5 8 12 16 21 23 21 17 13 10 9 12 12 12 12 14 13 13 14 15 14 14 14 16 19 22 26 29 33 36
14 13 12 13 14 14 11 8 9 11 11 12 13 15 19 23 25 29 28 18 9 6 5 4 2 -0 -1 -1 -0 1 1 1 2 3 4 6 6 8 13 18 21 22 19 13 10 11 13 14 14 14 15 15 15 15 14 14 15 16 17 19 21 24 27
15 13 12 13 13 13 11 9 9 12 11 11 12 14 17 21 24 28 28 22 15 10 7 5 4 3 2 -0 -1 0 1 1 1 1 2 4 5 5 5 6 10 18 24 24 17 11 11 13 14 13 13 14 16 16 15 14 15 16 18 20 20 21 23
16 13 12 12 13 13 11 9 10 12 11 10 12 14 16 19 24 27 25 21 19 16 12 9 7 4 3 2 0 -0 1 2 2 1 2 4 5 7 8 5 3 8 17 25 26 18 10 9 13 14 11 11 13 15 17 17 15 14 18 22 24 26 29
16 13 12 12 12 13 11 9 10 12 11 10 11 14 16 18 22 25 23 19 20 19 16 15 13 9 6 4 2 2 2 3 3 3 4 7 8 9 8 4 3 9 16 22 26 25 18 10 8 11 12 12 13 14 16 17 14 14 18 21 23 27 32
16 12 11 12 12 12 12 10 10 12 11 10 10 13 16 18 21 23 21 20 21 20 17 17 18 17 14 11 9 8 7 7 7 7 7 9 11 12 8 2 5 15 23 26 27 26 23 15 9 8 10 11 12 14 15 15 12 12 16 18 15 16 22
15 11 11 12 12 12 12 11 11 12 11 9 10 13 14 17 20 21 21 22 23 20 16 16 17 18 19 18 16 16 15 14 12 11 12 13 14 11 5 3 10 19 26 33 36 31 25 19 11 8 8 9 10 10 12 14 12 10 13 15 11 9 10
14 11 11 12 12 11 12 12 11 12 11 9 10 13 13 15 18 21 22 23 22 19 16 15 16 16 17 18 18 18 18 17 16 15 15 16 14 9 3 4 13 22 27 33 37 34 28 22 14 8 8 9 9 9 9 11 10 9 11 12 9 8 8
15 12 10 12 11 10 12 13 12 11 10 9 10 13 13 13 16 20 24 25 21 17 14 14 15 16 16 16 16 16 16 16 16 16 17 17 12 6 4 5 13 21 24 26 30 31 27 23 17 10 8 9 9 8 8 9 8 8 9 10 9 8 8
16 13 10 11 11 10 12 13 13 12 10 8 9 12 12 13 15 19 25 27 22 16 12 12 14 15 14 14 12 12 13 13 14 16 17 16 11 4 3 6 13 20 20 18 23 28 25 21 17 11 7 8 10 9 8 8 8 7 7 7 8 9 9
17 14 11 11 10 9 12 14 13 12 11 8 8 10 12 13 15 18 25 27 23 16 11 11 13 13 12 11 10 10 10 10 13 16 16 14 9 4 4 6 11 17 19 16 18 21 22 20 17 12 9 8 9 10 9 7 7 7 7 6 6 7 10
17 15 12 11 9 9 12 14 13 13 12 8 8 9 11 12 14 17 23 26 24 20 14 11 12 13 11 10 9 9 9 9 12 16 17 14 9 4 3 6 9 14 18 18 16 17 19 19 16 13 11 10 10 10 9 8 8 7 6 6 6 7 10
18 17 13 10 9 9 11 13 14 14 12 8 8 9 10 11 12 15 22 26 25 22 16 11 11 12 12 10 9 8 7 8 10 14 17 15 10 5 3 5 7 10 14 17 18 17 18 19 19 17 15 13 12 11 11 10 10 9 7 6 7 8 10
17 17 12 10 9 9 10 12 14 15 12 9 8 9 9 11 11 14 20 25 26 23 18 11 10 12 11 11 10 8 7 7 8 12 16 17 12 6 4 5 6 7 10 13 15 17 18 20 22 22 21 19 17 15 14 12 10 9 8 7 8 10 12
17 16 12 10 10 9 9 12 15 16 14 10 9 9 9 10 11 12 17 22 24 23 19 14 12 12 12 11 10 9 8 7 7 9 14 17 15 8 4 4 5 5 7 9 10 12 15 18 21 22 23 23 22 19 18 16 13 11 10 10 10 11 13
16 17 13 10 10 9 8 10 14 16 15 11 9 9 9 10 10 10 13 20 25 26 24 20 15 12 11 12 11 10 9 8 8 10 12 16 17 11 5 4 5 5 6 8 9 9 10 13 16 19 21 22 23 21 19 17 15 14 12 11 11 11 12
15 17 14 10 10 9 8 9 12 15 15 12 9 9 10 9 8 8 12 20 26 29 28 25 18 10 9 12 12 12 12 10 9 10 12 14 17 15 8 5 5 5 5 6 7 8 9 9 11 14 17 20 21 20 18 16 14 13 12 11 11 10 12
15 17 14 11 10 9 8 9 11 13 15 14 12 10 10 9 7 6 10 17 22 25 27 27 21 12 8 10 11 12 13 12 11 11 12 13 16 17 12 7 5 5 6 6 6 7 8 9 9 10 13 16 18 19 19 17 14 12 11 10 10 10 12
15 16 14 12 10 9 7 9 11 12 13 15 13 11 11 10 8 7 9 14 19 22 24 27 25 17 9 6 8 10 11 12 13 13 13 14 15 17 15 10 6 5 5 5 6 7 7 8 9 10 11 12 14 16 18 18 18 16 13 11 11 10 12
14 15 13 12 10 9 7 8 10 11 13 14 13 11 10 10 9 8 10 12 16 20 23 27 28 24 14 7 6 8 10 12 13 13 14 14 15 17 17 13 7 5 6 5 5 6 6 6 7 8 10 11 11 12 13 15 16 18 18 17 15 14 13
12 13 13 12 11 9 8 7 9 10 12 13 13 11 10 9 8 8 9 11 14 17 21 26 29 28 22 14 9 8 9 12 13 14 15 15 14 15 18 17 11 6 5 5 6 5 5 6 5 5 7 9 11 12 13 13 13 13 16 17 17 17 17
11 12 13 12 11 10 8 8 9 10 11 13 13 12 10 9 9 8 8 10 12 14 18 23 27 28 26 20 14 11 11 13 15 15 15 15 13 13 16 19 16 10 5 5 6 5 5 6 6 6 5 5 7 9 11 13 14 13 13 13 15 16 17
Height
5368 5366 5363 5360 5357 5355 5353 5352 5350 5349 5348 5346 5345 5343 5342 5341 5340 5338 5336 5335 5333 5333 5333 5332 5331 5330 5331 5332 5333 5334 5335 5337 5338 5341 5344 5347 5352 5358 5364 5371 5379 5391 5401 5404 5409 5417 5421 5425 5431 5437 5443 5447 5451 5457 5463 5470 5476 5483 5489 5494 5498 5502 5508
5364 5361 5359 5356 5353 5350 5348 5347 5345 5344 5343 5342 5341 5339 5338 5337 5335 5334 5333 5331 5329 5328 5328 5327 5326 5325 5325 5326 5327 5327 5327 5328 5329 5332 5336 5339 5343 5348 5353 5359 5367 5378 5387 5393 5399 5405 5410 5414 5418 5423 5430 5433 5438 5444 5449 5456 5462 5467 5473 5479 5484 5489 5495
5359 5356 5354 5351 5348 5346 5343 5342 5340 5339 5339 5338 5336 5335 5334 5333 5331 5330 5329 5327 5325 5324 5323 5322 5321 5320 5320 5320 5320 5320 5320 5321 5322 5323 5326 5330 5334 5338 5343 5348 5355 5364 5373 5382 5389 5393 5397 5403 5406 5410 5416 5419 5425 5432 5436 5442 5449 5453 5458 5464 5470 5476 5481
5354 5352 5349 5347 5344 5341 5339 5337 5335 5334 5334 5333 5332 5331 5330 5328 5327 5326 5325 5323 5322 5320 5318 5317 5316 5315 5315 5315 5315 5315 5314 5314 5315 5316 5318 5321 5325 5330 5334 5339 5344 5351 5359 5368 5376 5381 5385 5390 5394 5399 5402 5405 5411 5418 5424 5430 5436 5440 5445 5452 5457 5462 5468
5350 5347 5344 5342 5339 5337 5334 5332 5330 5329 5328 5327 5327 5326 5325 5324 5323 5322 5321 5320 5318 5317 5315 5313 5312 5311 5311 5310 5310 5310 5309 5309 5309 5309 5310 5313 5316 5321 5326 5330 5335 5340 5346 5354 5363 5370 5372 5376 5382 5387 5390 5392 5398 5404 5410 5417 5423 5428 5433 5439 5444 5449 5455
5345 5342 5340 5337 5335 5332 5330 5327 5325 5324 5323 5322 5321 5321 5321 5319 5319 5318 5317 5316 5314 5313 5312 5310 5308 5307 5306 5306 5305 5305 5305 5304 5304 5304 5305 5306 5309 5312 5317 5322 5327 5331 5336 5342 5350 5357 5361 5364 5369 5374 5378 5382 5386 5391 5398 5404 5411 5416 5421 5426 5431 5436 5442
5340 5337 5335 5332 5330 5327 5325 5322 5320 5318 5317 5316 5315 5316 5316 5315 5314 5314 5313 5312 5311 5309 5308 5306 5305 5303 5302 5301 5301 5300 5300 5300 5300 5300 5300 5301 5302 5305 5309 5314 5319 5323 5328 5334 5340 5346 5351 5355 5358 5363 5369 5372 5375 5380 5387 5393 5398 5402 5407 5413 5418 5423 5429
5335 5332 5329 5327 5325 5322 5320 5318 5315 5313 5311 5310 5309 5310 5310 5310 5309 5309 5309 5308 5307 5306 5304 5303 5301 5300 5298 5298 5297 5297 5296 5296 5297 5297 5296 5297 5298 5300 5303 5307 5311 5316 5321 5326 5331 5336 5342 5346 5349 5354 5359 5362 5365 5371 5378 5382 5384 5389 5394 5399 5404 5410 5416
5329 5327 5324 5322 5319 5317 5315 5313 5310 5308 5305 5304 5304 5304 5304 5304 5304 5304 5303 5303 5303 5302 5300 5299 5298 5296 5295 5294 5293 5293 5293 5293 5293 5293 5293 5294 5295 5296 5298 5301 5304 5309 5313 5318 5323 5327 5331 5336 5340 5344 5347 5351 5355 5360 5364 5365 5368 5375 5382 5385 5388 5395 5402
5324 5321 5319 5316 5314 5312 5310 5307 5305 5302 5300 5299 5298 5298 5298 5298 5298 5298 5298 5298 5298 5297 5297 5295 5294 5293 5292 5291 5290 5290 5290 5289 5289 5290 5290 5291 5292 5293 5295 5297 5300 5303 5306 5310 5315 5318 5322 5326 5331 5334 5336 5340 5343 5346 5348 5351 5356 5364 5370 5371 5373 5382 5390
5318 5316 5313 5311 5309 5307 5305 5302 5299 5297 5295 5293 5292 5292 5291 5291 5291 5292 5293 5293 5293 5293 5292 5291 5291 5290 5289 5288 5287 5287 5287 5286 5286 5287 5287 5288 5289 5290 5292 5294 5296 5298 5301 5304 5308 5311 5314 5318 5322 5324 5326 5330 5333 5334 5337 5341 5345 5352 5357 5359 5363 5372 5381
5312 5310 5308 5306 5303 5301 5299 5297 5294 5292 5290 5288 5287 5286 5285 5285 5285 5286 5287 5287 5288 5288 5287 5287 5287 5286 5285 5285 5284 5284 5284 5283 5283 5284 5284 5285 5286 5287 5289 5290 5292 5294 5296 5299 5301 5304 5307 5311 5313 5315 5317 5320 5323 5325 5328 5331 5335 5341 5346 5349 5353 5363 5372
5307 5304 5302 5300 5298 5296 5293 5291 5288 5287 5285 5283 5281 5280 5279 5279 5279 5279 5281 5282 5282 5282 5282 5283 5282 5282 5282 5281 5281 5281 5281 5280 5281 5281 5281 5282 5283 5284 5285 5286 5288 5290 5291 5293 5296 5298 5301 5303 5305 5307 5310 5312 5315 5318 5321 5324 5328 5332 5335 5339 5344 5353 5361
5301 5299 5297 5295 5293 5290 5288 5285 5283 5282 5280 5278 5276 5274 5273 5273 5273 5273 5275 5275 5275 5276 5276 5277 5278 5278 5278 5277 5277 5277 5277 5277 5277 5278 5278 5279 5279 5280 5281 5283 5284 5285 5286 5288 5291 5293 5295 5296 5298 5301 5303 5305 5308 5311 5314 5317 5320 5323 5326 5330 5336 5342 5348
5295 5293 5291 5289 5287 5285 5283 5280 5278 5277 5275 5273 5271 5269 5268 5268 5267 5268 5269 5269 5268 5269 5270 5271 5273 5273 5273 5273 5273 5273 5273 5274 5274 5274 5275 5275 5276 5276 5277 5279 5279 5280 5282 5284 5286 5288 5289 5290 5292 5295 5296 5299 5301 5304 5307 5309 5311 5315 5319 5323 5328 5333 5337
5288 5287 5285 5283 5282 5280 5277 5275 5273 5272 5270 5268 5266 5264 5262 5262 5261 5262 5263 5263 5262 5262 5263 5265 5266 5267 5268 5268 5268 5268 5269 5270 5270 5271 5271 5271 5271 5272 5273 5274 5274 5275 5277 5279 5280 5282 5283 5284 5286 5288 5290 5292 5294 5297 5299 5301 5304 5308 5311 5315 5319 5322 5324
5282 5280 5279 5278 5276 5274 5272 5269 5268 5267 5265 5263 5261 5259 5257 5256 5256 5256 5257 5256 5255 5256 5257 5258 5260 5261 5262 5263 5263 5264 5264 5265 5266 5266 5267 5267 5267 5268 5268 5268 5268 5270 5272 5273 5274 5276 5277 5278 5280 5281 5283 5285 5287 5289 5291 5294 5299 5302 5302 5305 5309 5311 5312
5276 5274 5273 5272 5270 5269 5267 5264 5263 5262 5260 5258 5256 5254 5252 5251 5250 5251 5250 5249 5249 5250 5250 5252 5253 5255 5256 5257 5258 5259 5259 5260 5261 5262 5262 5262 5262 5263 5263 5262 5262 5264 5265 5266 5268 5269 5271 5272 5274 5275 5277 5279 5280 5282 5284 5289 5292 5293 5293 5297 5301 5301 5301
5270 5268 5267 5266 5265 5263 5261 5259 5258 5257 5255 5253 5251 5249 5248 5246 5245 5245 5244 5242 5242 5243 5244 5245 5247 5248 5250 5251 5252 5253 5254 5254 5255 5256 5257 5257 5257 5258 5257 5255 5256 5258 5259 5259 5260 5261 5263 5266 5268 5269 5271 5273 5275 5276 5279 5282 5285 5285 5287 5290 5292 5291 5292
5264 5262 5261 5260 5259 5258 5256 5254 5252 5252 5250 5248 5246 5245 5243 5241 5240 5239 5238 5236 5237 5238 5238 5239 5240 5242 5244 5245 5246 5246 5247 5248 5249 5250 5251 5252 5252 5252 5251 5249 5250 5252 5251 5251 5252 5253 5256 5259 5261 5263 5265 5267 5269 5271 5273 5275 5278 5279 5280 5282 5284 5284 5285
5258 5256 5255 5255 5254 5252 5251 5249 5247 5246 5245 5243 5241 5240 5238 5237 5235 5234 5232 5231 5232 5232 5233 5233 5235 5236 5237 5239 5240 5240 5241 5242 5243 5244 5246 5247 5247 5247 5245 5244 5245 5245 5244 5244 5244 5245 5248 5251 5254 5257 5259 5261 5263 5265 5267 5269 5271 5273 5273 5275 5277 5278 5279
5252 5250 5249 5249 5248 5247 5246 5244 5243 5241 5240 5239 5237 5235 5233 5232 5230 5229 5227 5227 5227 5227 5227 5228 5229 5231 5232 5233 5234 5235 5235 5236 5237 5238 5240 5241 5242 5241 5240 5239 5239 5239 5239 5238 5238 5239 5241 5244 5247 5250 5253 5255 5257 5259 5261 5262 5265 5267 5267 5269 5270 5271 5273
5246 5244 5243 5243 5243 5242 5241 5239 5238 5236 5235 5234 5232 5231 5229 5227 5225 5224 5223 5222 5222 5222 5222 5222 5224 5225 5226 5228 5229 5230 5230 5231 5232 5233 5234 5236 5236 5237 5236 5235 5234 5234 5234 5234 5233 5234 5236 5238 5241 5244 5247 5249 5251 5253 5255 5257 5259 5261 5262 5263 5264 5266 5267
5240 5239 5238 5237 5237 5236 5236 5235 5233 5232 5230 5228 5227 5226 5225 5223 5221 5219 5218 5218 5217 5217 5217 5217 5219 5220 5222 5223 5224 5225 5225 5226 5227 5228 5229 5230 5231 5232 5232 5231 5230 5230 5230 5230 5230 5230 5232 5233 5236 5239 5241 5243 5246 5248 5250 5252 5254 5256 5257 5258 5259 5260 5261
5234 5233 5232 5232 5232 5231 5231 5230 5229 5227 5226 5224 5222 5222 5220 5218 5217 5215 5214 5213 5213 5212 5212 5212 5214 5215 5217 5218 5219 5220 5221 5222 5222 5223 5224 5225 5227 5227 5228 5228 5227 5226 5226 5226 5226 5227 5228 5230 5232 5234 5236 5238 5240 5243 5245 5247 5249 5251 5252 5253 5254 5255 5256
5229 5228 5227 5226 5226 5226 5226 5225 5224 5223 5221 5220 5218 5217 5216 5214 5212 5211 5210 5209 5208 5208 5208 5208 5209 5211 5212 5213 5215 5216 5217 5217 5218 5219 5219 5221 5222 5223 5224 5224 5224 5224 5224 5223 5223 5224 5225 5226 5227 5229 5231 5233 5235 5238 5240 5242 5244 5245 5246 5248 5249 5250 5252
5223 5222 5222 5221 5221 5221 5221 5220 5220 5218 5217 5215 5214 5213 5211 5210 5208 5207 5206 5205 5204 5204 5204 5204 5204 5206 5207 5209 5210 5211 5212 5213 5213 5214 5215 5216 5217 5218 5219 5220 5220 5221 5221 5220 5220 5221 5221 5222 5224 5225 5227 5228 5230 5232 5234 5236 5238 5240 5241 5242 5244 5245 5247
5217 5217 5216 5216 5216 5216 5216 5215 5215 5214 5212 5211 5210 5209 5207 5206 5205 5203 5202 5201 5200 5200 5200 5200 5200 5201 5203 5204 5205 5206 5207 5208 5209 5210 5211 5212 5213 5214 5215 5216 5217 5217 5218 5218 5217 5217 5218 5219 5220 5221 5222 5223 5225 5227 5228 5230 5232 5234 5236 5237 5238 5240 5242
5212 5212 5211 5211 5211 5211 5211 5211 5211 5210 5208 5207 5205 5204 5204 5202 5201 5199 5198 5197 5196 5196 5196 5196 5196 5197 5198 5199 5200 5201 5203 5204 5205 5206 5206 5207 5208 5210 5211 5212 5213 5214 5214 5215 5215 5214 5215 5215 5216 5217 5218 5219 5220 5222 5223 5225 5227 5229 5230 5232 5233 5236 5238
5206 5206 5206 5206 5206 5206 5206 5206 5206 5206 5204 5203 5201 5200 5200 5198 5197 5196 5194 5193 5192 5192 5191 5192 5193 5193 5194 5195 5196 5197 5198 5199 5200 5201 5202 5203 5204 5205 5206 5208 5209 5210 5211 5212 5212 5212 5212 5212 5213 5213 5214 5215 5216 5217 5218 5220 5222 5224 5225 5227 5229 5231 5233
5201 5201 5201 5201 5201 5201 5201 5201 5201 5201 5200 5199 5198 5197 5196 5195 5193 5192 5191 5189 5189 5188 5188 5188 5189 5189 5190 5190 5192 5193 5193 5194 5195 5196 5197 5198 5199 5201 5202 5203 5205 5206 5207 5208 5209 5209 5209 5209 5209 5210 5211 5212 5212 5213 5214 5216 5218 5219 5221 5222 5224 5226 5228
5196 5196 5196 5196 5196 5196 5197 5197 5197 5196 5196 5195 5194 5193 5192 5191 5190 5188 5187 5186 5185 5185 5184 5184 5185 5185 5186 5186 5187 5188 5189 5190 5191 5192 5193 5194 5195 5196 5197 5199 5200 5202 5203 5204 5205 5206 5206 5207 5207 5207 5208 5209 5209 5210 5211 5212 5214 5215 5217 5218 5219 5221 5223
5191 5191 5192 5192 5192 5192 5192 5192 5192 5192 5191 5191 5190 5189 5189 5188 5187 5185 5184 5183 5182 5181 5181 5180 5181 5181 5182 5183 5183 5184 5185 5185 5186 5187 5188 5189 5190 5191 5193 5194 5196 5198 5199 5200 5202 5203 5203 5204 5204 5204 5205 5206 5206 5207 5208 5209 5210 5211 5213 5214 5216 5217 5219
5186 5187 5187 5187 5187 5187 5187 5188 5188 5188 5187 5187 5186 5185 5185 5184 5183 5182 5181 5180 5179 5178 5177 5177 5177 5177 5178 5179 5180 5180 5181 5181 5181 5182 5183 5184 5186 5187 5188 5190 5192 5193 5195 5196 5198 5199 5200 5201 5201 5202 5202 5203 5203 5204 5205 5206 5207 5208 5209 5210 5212 5213 5215
5182 5182 5182 5182 5183 5183 5183 5183 5183 5183 5183 5183 5182 5181 5181 5180 5180 5179 5178 5177 5176 5175 5175 5174 5174 5174 5174 5175 5176 5176 5177 5177 5177 5178 5179 5180 5181 5183 5184 5185 5187 5189 5191 5192 5194 5195 5196 5197 5198 5198 5199 5200 5200 5201 5202 5202 5203 5204 5205 5207 5208 5209 5211
5177 5177 5178 5178 5178 5179 5179 5179 5179 5179 5179 5178 5178 5177 5177 5176 5176 5175 5175 5174 5173 5173 5172 5171 5171 5170 5171 5171 5172 5172 5172 5172 5173 5173 5174 5176 5177 5178 5180 5181 5183 5184 5186 5188 5190 5191 5192 5193 5194 5195 5196 5196 5197 5198 5199 5199 5200 5201 5202 5203 5204 5205 5207